Simultaneous Nadir Overpasses (SNOs) Predictions

Prediction of SNOs between AQUA and NOAA-19 Satellite Orbit:

Table of predicted SNOs for the next 14.0 days since TLE Epoch: 1/15/2016
Index Date (AQUA) Time (AQUA) Lat,Lon (AQUA) SZA (AQUA ) Date (NOAA-19) Time (NOAA-19) Lat,Lon (NOAA-19) SZA (NOAA-19 ) Distance(km) Time Diff (sec)
1 01/16/2016 08:02:21 80.66, 22.40 103.66 01/16/2016 08:02:27 80.66, 22.47 103.65 1.30 6
2 01/18/2016 12:46:41 80.71, -49.19 103.34 01/18/2016 12:45:40 80.71, -49.36 103.38 3.12 61
3 01/18/2016 13:36:06 -80.67, 118.93 76.76 01/18/2016 13:36:40 -80.67, 118.78 76.75 2.76 34
4 01/20/2016 18:20:25 -80.69, 47.62 77.16 01/20/2016 18:19:50 -80.68, 47.79 77.16 3.25 35
5 01/20/2016 19:09:50 80.64,-144.20 102.75 01/20/2016 19:10:48 80.64,-144.16 102.73 0.74 58
6 01/22/2016 23:54:08 80.67, 144.40 102.33 01/22/2016 23:53:59 80.68, 144.30 102.36 2.14 9
7 01/25/2016 05:27:53 -80.69,-119.26 78.15 01/25/2016 05:28:10 -80.69,-119.36 78.14 1.86 17
8 01/27/2016 10:12:11 -80.70, 169.54 78.66 01/27/2016 10:11:20 -80.70, 169.54 78.63 0.18 51
9 01/27/2016 11:01:36 80.66, -22.31 101.25 01/27/2016 11:02:19 80.66, -22.19 101.22 2.25 43
10 01/29/2016 15:45:55 80.70, -93.93 100.78 01/29/2016 15:45:31 80.70, -93.84 100.78 1.87 24




NCC Satellite Simultaneous Nadir Overpasses (SNOs) Prediction Service
